Weather History for Madison, MN

Change the Weather History Date:

Tuesday, October 2, 2012

  Actual Average (KAQP) Record (KAQP)
Temperature  
Mean Temperature 52 °F -  
Max Temperature 73 °F 62 °F 87 °F (1997)
Min Temperature 30 °F 37 °F 3 °F (1998)
Degree Days  
Heating Degree Days 14    
Growing Degree Days 2 (Base 50)    
Moisture  
Dew Point 22 °F    
Average Humidity 38    
Maximum Humidity 80    
Minimum Humidity 10    
Precipitation  
Precipitation 0.00 in - - ()
Sea Level Pressure  
Sea Level Pressure 29.88 in    
Wind  
Wind Speed 7 mph (SSW)    
Max Wind Speed 20 mph    
Max Gust Speed 25 mph    
Visibility 10 miles    
Events      
Averages and records for this station are not official NWS values.
T = Trace of Precipitation, MM = Missing Value Source: NWS Daily Summary

Daily Weather History Graph

Daily Weather History Graph

Search for Another Location

Airport:

Trip Planner

Search our weather history database for the weather conditions in past years. The results will help you decide how hot, cold, wet, or windy it might be!

Date:

Astronomy

Oct. 02, 2012 Rise Set
Actual Time 7:24 AM CDT 7:02 PM CDT
Civil Twilight 6:55 AM CDT 7:31 PM CDT
Nautical Twilight 6:21 AM CDT 8:05 PM CDT
Astronomical Twilight 5:46 AM CDT 8:39 PM CDT
Moon 8:06 PM CDT (10/2) 10:01 AM CDT (10/2)
Length of Visible Light 12h 36m
Length of Day
11h 37m
Waning Gibbous, 94% of the Moon is Illuminated
Oct 2
Waning Gibbous
Oct 8
Last Quarter
Oct 15
New
Oct 21
First Quarter
Oct 29
Full

Hourly Weather History & Observations

Time (CDT) Temp. Windchill Dew Point Humidity Pressure Visibility Wind Dir Wind Speed Gust Speed Precip Events Conditions
12:14 AM 39.2 °F 35.9 °F 24.8 °F 56% 30.01 in 10.0 mi West 4.6 mph - N/A   Clear
12:33 AM 39.2 °F 35.9 °F 26.6 °F 61% 30.00 in 10.0 mi West 4.6 mph - N/A   Clear
12:54 AM 39.2 °F 37.0 °F 26.6 °F 61% 29.99 in 10.0 mi West 3.5 mph - N/A   Clear
1:33 AM 39.2 °F 34.2 °F 26.6 °F 61% 30.00 in 10.0 mi West 6.9 mph - N/A   Clear
2:14 AM 35.6 °F 30.7 °F 24.8 °F 65% 29.99 in 10.0 mi West 5.8 mph - N/A   Clear
2:33 AM 35.6 °F - 24.8 °F 65% 29.99 in 10.0 mi Calm Calm - N/A   Clear
3:13 AM 33.8 °F 30.8 °F 24.8 °F 70% 29.98 in 10.0 mi West 3.5 mph - N/A   Clear
3:34 AM 33.8 °F 30.8 °F 24.8 °F 70% 29.97 in 10.0 mi West 3.5 mph - N/A   Clear
3:53 AM 33.8 °F - 24.8 °F 70% 29.97 in 10.0 mi Calm Calm - N/A   Clear
3:55 AM 33.8 °F - 24.8 °F 70% 29.97 in 10.0 mi Calm Calm - N/A   Clear
4:31 AM 35.6 °F 31.7 °F 26.6 °F 70% 29.96 in 10.0 mi SW 4.6 mph - N/A   Clear
4:48 AM 37.4 °F 33.8 °F 26.6 °F 65% 29.96 in 10.0 mi SW 4.6 mph - N/A   Clear
5:34 AM 35.6 °F - 24.8 °F 65% 29.96 in 10.0 mi Calm Calm - N/A   Clear
5:54 AM 33.8 °F - 24.8 °F 70% 29.96 in 10.0 mi Calm Calm - N/A   Clear
6:14 AM 33.8 °F - 24.8 °F 70% 29.96 in 10.0 mi Calm Calm - N/A   Clear
6:34 AM 32.0 °F - 24.8 °F 75% 29.97 in 10.0 mi Calm Calm - N/A   Clear
6:53 AM 32.0 °F - 24.8 °F 75% 29.97 in 10.0 mi Calm Calm - N/A   Clear
7:14 AM 30.2 °F 25.4 °F 24.8 °F 80% 29.97 in 10.0 mi South 4.6 mph - N/A   Clear
7:33 AM 32.0 °F 27.5 °F 24.8 °F 75% 29.96 in 10.0 mi South 4.6 mph - N/A   Clear
7:54 AM 33.8 °F 29.6 °F 24.8 °F 70% 29.96 in 10.0 mi SSE 4.6 mph - N/A   Clear
8:14 AM 35.6 °F 30.7 °F 26.6 °F 70% 29.95 in 10.0 mi SSE 5.8 mph - N/A   Clear
8:33 AM 39.2 °F 37.0 °F 28.4 °F 65% 29.95 in 10.0 mi South 3.5 mph - N/A   Clear
8:54 AM 44.6 °F 42.2 °F 28.4 °F 53% 29.94 in 10.0 mi South 4.6 mph - N/A   Clear
9:14 AM 50.0 °F - 30.2 °F 47% 29.94 in 10.0 mi South 6.9 mph - N/A   Clear
9:33 AM 53.6 °F - 28.4 °F 38% 29.93 in 10.0 mi South 11.5 mph - N/A   Clear
9:54 AM 57.2 °F - 28.4 °F 33% 29.92 in 10.0 mi South 12.7 mph - N/A   Clear
10:14 AM 60.8 °F - 28.4 °F 29% 29.92 in 10.0 mi South 13.8 mph - N/A   Clear
10:34 AM 62.6 °F - 28.4 °F 27% 29.91 in 10.0 mi South 16.1 mph - N/A   Clear
10:54 AM 64.4 °F - 26.6 °F 24% 29.91 in 10.0 mi SSW 15.0 mph 20.7 mph N/A   Clear
11:13 AM 66.2 °F - 24.8 °F 21% 29.90 in 10.0 mi SSW 15.0 mph - N/A   Clear
11:34 AM 66.2 °F - 23.0 °F 19% 29.89 in 10.0 mi SW 17.3 mph 20.7 mph N/A   Clear
11:54 AM 66.2 °F - 24.8 °F 21% 29.89 in 10.0 mi SW 15.0 mph 20.7 mph N/A   Clear
12:13 PM 68.0 °F - 23.0 °F 18% 29.89 in 10.0 mi SSW 11.5 mph - N/A   Clear
12:34 PM 69.8 °F - 21.2 °F 16% 29.87 in 10.0 mi SSW 17.3 mph - N/A   Clear
12:54 PM 69.8 °F - 21.2 °F 16% 29.86 in 10.0 mi South 17.3 mph 20.7 mph N/A   Clear
1:13 PM 69.8 °F - 21.2 °F 16% 29.85 in 10.0 mi South 16.1 mph 19.6 mph N/A   Clear
1:34 PM 71.6 °F - 21.2 °F 15% 29.84 in 10.0 mi South 16.1 mph 20.7 mph N/A   Clear
1:54 PM 71.6 °F - 19.4 °F 14% 29.83 in 10.0 mi SSW 15.0 mph 21.9 mph N/A   Clear
2:13 PM 71.6 °F - 19.4 °F 14% 29.83 in 10.0 mi SSW 17.3 mph 20.7 mph N/A   Clear
2:34 PM 73.4 °F - 19.4 °F 13% 29.82 in 10.0 mi SSW 12.7 mph 17.3 mph N/A   Clear
2:54 PM 73.4 °F - 17.6 °F 12% 29.80 in 10.0 mi SSW 16.1 mph 24.2 mph N/A   Clear
3:13 PM 73.4 °F - 15.8 °F 11% 29.79 in 10.0 mi SSW 19.6 mph 24.2 mph N/A   Clear
3:34 PM 73.4 °F - 15.8 °F 11% 29.78 in 10.0 mi South 19.6 mph 25.3 mph N/A   Clear
3:54 PM 73.4 °F - 15.8 °F 11% 29.78 in 10.0 mi South 16.1 mph - N/A   Clear
4:13 PM 73.4 °F - 15.8 °F 11% 29.77 in 10.0 mi South 16.1 mph 21.9 mph N/A   Clear
4:34 PM 73.4 °F - 15.8 °F 11% 29.78 in 10.0 mi South 17.3 mph - N/A   Clear
4:54 PM 73.4 °F - 15.8 °F 11% 29.78 in 10.0 mi South 15.0 mph - N/A   Clear
5:13 PM 73.4 °F - 15.8 °F 11% 29.78 in 10.0 mi SSW 11.5 mph - N/A   Clear
5:34 PM 73.4 °F - 14.0 °F 10% 29.77 in 10.0 mi South 17.3 mph - N/A   Clear
6:13 PM 71.6 °F - 15.8 °F 12% 29.78 in 10.0 mi South 8.1 mph - N/A   Clear
6:34 PM 68.0 °F - 17.6 °F 15% 29.78 in 10.0 mi South 8.1 mph - N/A   Clear
7:13 PM 60.8 °F - 17.6 °F 19% 29.79 in 10.0 mi South 5.8 mph - N/A   Clear
7:34 PM 57.2 °F - 17.6 °F 21% 29.80 in 2.5 mi South 8.1 mph - N/A   Haze
8:13 PM 53.6 °F - 17.6 °F 24% 29.80 in 10.0 mi South 5.8 mph - N/A   Clear
8:34 PM 53.6 °F - 19.4 °F 26% 29.80 in 10.0 mi SSE 6.9 mph - N/A   Clear
8:54 PM 51.8 °F - 17.6 °F 26% 29.80 in 7.0 mi SSE 10.4 mph - N/A   Clear
9:13 PM 50.0 °F - 19.4 °F 30% 29.80 in 10.0 mi SSE 9.2 mph - N/A   Clear
9:34 PM 50.0 °F - 19.4 °F 30% 29.80 in 10.0 mi SSE 10.4 mph - N/A   Clear
9:54 PM 51.8 °F - 19.4 °F 28% 29.80 in 10.0 mi SSE 10.4 mph - N/A   Clear
10:13 PM 50.0 °F - 19.4 °F 30% 29.80 in 10.0 mi SSE 9.2 mph - N/A   Clear
10:34 PM 48.2 °F - 21.2 °F 34% 29.81 in 10.0 mi SSE 6.9 mph - N/A   Clear
10:54 PM 50.0 °F - 21.2 °F 32% 29.81 in 7.0 mi SSE 9.2 mph - N/A   Clear
11:13 PM 48.2 °F - 21.2 °F 34% 29.81 in 10.0 mi SSE 8.1 mph - N/A   Clear
11:34 PM 46.4 °F 42.4 °F 21.2 °F 37% 29.82 in 10.0 mi SSE 8.1 mph - N/A   Clear
11:54 PM 46.4 °F 42.9 °F 21.2 °F 37% 29.82 in 10.0 mi SSE 6.9 mph - N/A   Clear